Regional Weather Roundup
Issued by NWS Lake Charles, LA

Home | Current Version | Previous Version | Text Only | Print | Product List | Glossary On
Versions: 1 2 3 4 5 6 7 8 9 10 11 12 13 14 15 16 17 18 19 20 21 22 23 24 25 26 27 28 29 30 31 32 33 34 35 36 37 38 39 40 41 42 43 44 45 46 47 48
000
ASUS44 KLCH 012110
RWRLCH
RWRLCH
REGIONAL WEATHER ROUNDUP
NATIONAL WEATHER SERVICE LAKE CHARLES LA
400 PM CDT WED OCT 01 2014

Note: "fair" indicates few or no clouds below 12,000 feet with no
significant weather and/or obstructions to visibility.


ACROSS SOUTHEAST TEXAS

CITY           SKY/WX    TMP DP  RH WIND       PRES   REMARKS
BEAUMONT       MOSUNNY   89  75  63 S13       29.80F
BEAUMONT CITY    N/A     89  74  62 S12G17    29.80F
ORANGE         CLEAR     88  73  61 S13       29.82F
JASPER         MOSUNNY   79  75  86 SE5       29.83F
$$

ACROSS CENTRAL LOUISIANA

CITY           SKY/WX    TMP DP  RH WIND       PRES   REMARKS
LEESVILLE      PTSUNNY   86  74  68 S9        29.82F
FULLERTON      MOCLDY    86  73  65 VRB5      29.80F
ALEXANDRIA INT MOSUNNY   87  72  60 SE13      29.81F
ESLER FIELD    MOSUNNY   88  72  58 SE12      29.84F
DERIDDER         N/A     85  75  72 SE7       29.84F
OAKDALE        MOCLDY    87  75  68 E6        29.82F
OPELOUSAS      MOCLDY    86  74  68 S7        29.83F
$$

ACROSS SOUTHWEST AND SOUTH CENTRAL LOUISIANA

CITY           SKY/WX    TMP DP  RH WIND       PRES   REMARKS
SULPHUR        PTCLDY    89  76  66 S13       29.82F
LAKE CHARLES   MOSUNNY   87  74  64 S9        29.80F
CHENNAULT INT  MOSUNNY   90  75  62 S12       29.81F HX 100
CAMERON PHI    CLEAR     84  77  79 S12       29.85S
DEQUINCY       LGT RAIN  82  77  85 CALM      29.82S
JENNINGS       MOCLDY    88  76  67 SE14      29.81F
LAFAYETTE      MOSUNNY   87  75  67 S7        29.84F
NEW IBERIA     PTSUNNY   87  77  72 S9        29.85F
ABBEVILLE      MOCLDY    85  78  78 S12       29.85R
PATTERSON      PTSUNNY   82  77  83 S8        29.89R
SALT POINT       N/A     86  79  79 VRB5      29.86S
$$

SELECTED SITES ACROSS THE REGION

CITY           SKY/WX    TMP DP  RH WIND       PRES   REMARKS
HOUSTON BUSH   MOSUNNY   90  74  59 S10       29.77F
HOUSTON HOBBY  PTSUNNY   89  74  60 SE9       29.77F
GALVESTON      MOSUNNY   85  77  77 S12       29.81F
COLLEGE STAT   MOSUNNY   89  70  53 SE8       29.77F
CONROE         MOSUNNY   90  69  50 SE7       29.78F
HUNTSVILLE     MOSUNNY   92  68  45 SE6       29.78F
LUFKIN         CLOUDY    89  74  60 S7        29.79F
SHREVEPORT     TSTM      79  75  87 SE17G26   29.81R
MONROE         PTSUNNY   87  70  56 S7        29.84F
NATCHEZ MS     MOSUNNY   84  72  65 S10       29.87S
BATON ROUGE    PTSUNNY   85  72  65 SE9       29.87S
N.O. INTL ARPT PTSUNNY   83  72  69 SE7       29.89S
SLIDELL        CLOUDY    84  73  69 SE8       29.90S
$$

MARINE REPORTS

STATION/POSITION TIME  TEMP    WIND        PRES    VSBY  WAVE
                       AIR SEA DIR/SP/G                  HT/PER
                 (UTC) (F)     (DEG/KT/KT) (MB)    (MI)  (FT/S)
BUOY 30 S HIGH I 2100   83 84  180/  6/  8 1009.0F         2/ 4
SEA RIM ST PARK  2000   83     150/ 11/ 14 1010.2F
PORT ARTHUR      2100      81  150/  7/ 10 1009.4F
SABINE PASS N    2100   84 83  200/ 10/ 14 1009.7F
TEXAS POINT      2100   81 83  150/ 11/ 12 1009.8F
CALCASIEU PASS   2100   83 82  190/  9/ 12   N/A
LK CHARLES BEACH 2100   87 83              1009.2F
MARSH ISLAND     NOT AVBL
FRESH WATER LOCK 2100   82 83  170/  8/  9 1010.5R
AMERADA PASS     2100   81 80  120/  5/  9 1011.3F
$$



USA.gov is the U.S. government's official web portal to all federal, state and local government web resources and services.